Wind_Speed
5 5 4 4 3 3 3 3 2 3 3 2 2 2 2 3 2 1 1 1 2 2 3 3 4 5 4 5 6 6 7 7 8 8 7 7 7 7 7 7 6 6 6
5 6 5 4 3 3 2 2 2 2 2 2 1 1 1 2 2 2 2 2 3 3 3 4 4 4 5 5 6 6 7 7 8 8 8 8 8 8 9 9 8 8 8
6 5 5 5 5 4 4 4 3 3 3 2 2 1 1 2 3 4 4 4 4 4 3 3 4 5 5 6 6 6 7 8 8 8 8 9 9 9 9 9 9 9 9
6 5 6 6 6 5 4 4 3 4 4 3 3 3 2 3 3 3 4 4 5 6 6 5 6 7 7 7 7 8 8 9 9 10 10 11 11 11 10 10 10 10 10
6 5 5 5 5 5 5 4 4 3 3 3 3 3 3 3 3 3 4 5 6 6 6 6 7 8 9 9 9 10 10 10 11 11 12 12 12 12 11 12 11 11 11
6 5 5 5 5 5 5 5 4 3 3 3 3 3 3 3 3 4 5 5 6 7 8 8 9 9 10 10 11 11 11 12 12 12 13 13 13 13 13 13 12 12 12
7 6 5 6 6 5 5 5 5 5 4 4 4 4 4 5 5 5 6 6 7 8 9 10 10 10 10 11 11 12 12 13 13 13 14 14 14 14 14 14 14 13 13
9 8 7 7 6 6 6 6 6 6 5 5 5 6 6 6 6 7 7 7 8 9 9 9 11 11 11 11 11 12 13 13 13 14 15 15 14 14 14 15 14 13 13
9 8 8 7 7 7 7 7 7 7 7 7 7 7 7 7 8 8 8 9 9 10 10 11 12 12 12 12 12 13 14 14 14 15 15 15 15 15 14 14 15 14 14
10 10 9 9 8 8 8 9 9 9 9 9 9 9 9 9 10 9 10 11 11 11 11 12 13 13 13 13 13 14 15 16 16 16 16 16 15 15 15 15 14 14 14
11 11 11 11 10 9 10 11 11 11 11 11 11 11 11 12 12 12 11 12 12 13 13 13 14 14 14 14 14 15 16 16 16 16 16 16 16 15 16 16 15 15 15
12 12 12 12 11 11 12 12 13 13 13 14 14 14 13 13 13 13 14 14 14 14 14 15 15 15 16 16 16 16 16 16 16 16 16 16 17 17 17 16 16 16 16
14 14 14 13 13 13 13 14 14 14 15 15 15 15 15 14 15 15 15 16 16 16 16 16 16 17 17 17 18 18 17 17 17 18 18 18 18 18 18 17 16 16 16
16 16 15 15 15 15 15 15 16 16 16 16 16 15 16 16 16 17 17 17 18 18 18 18 18 17 17 18 19 19 19 19 19 19 19 19 19 19 18 17 16 16 16
17 17 16 16 16 16 15 16 16 17 17 17 16 16 17 17 17 17 18 18 19 18 18 18 19 19 19 19 19 19 19 19 19 19 19 19 19 19 18 17 17 17 17
18 17 17 17 17 16 16 16 16 16 17 17 17 18 18 18 18 18 18 19 19 20 20 20 20 21 21 20 20 20 20 20 21 20 20 20 19 19 19 18 19 18 18
18 18 18 18 19 18 17 17 17 18 18 19 19 20 20 20 21 20 19 20 20 21 22 22 22 22 22 21 21 21 20 21 21 21 21 20 20 19 19 18 18 18 17
20 20 20 20 20 20 19 19 19 19 20 20 21 22 22 23 23 22 21 21 22 23 23 23 22 23 23 23 22 22 21 22 21 21 21 21 20 19 19 19 18 18 18
22 22 22 21 21 21 21 22 22 22 22 23 23 23 24 24 24 24 24 24 24 24 24 24 23 24 24 24 24 23 23 23 22 22 21 21 21 20 20 20 19 19 19
23 23 23 23 23 23 23 24 24 24 25 25 25 26 25 25 26 26 25 25 25 25 25 25 25 25 25 24 24 23 23 23 23 22 22 21 22 22 22 21 21 20 20
24 24 24 24 25 25 25 25 26 26 26 26 26 26 26 26 26 26 26 26 27 26 26 26 25 25 25 25 24 24 23 23 24 24 23 23 23 23 23 23 23 22 21
25 25 25 25 26 26 26 27 27 27 27 27 28 27 27 26 26 26 27 27 28 27 27 27 27 26 25 25 25 24 24 24 25 25 25 25 25 25 24 24 24 23 22
27 27 27 27 27 27 27 28 29 29 29 29 29 28 28 27 27 28 28 28 29 29 29 29 28 27 26 26 26 26 27 27 27 27 27 27 27 26 25 25 25 24 23
29 29 29 29 29 29 29 30 30 30 30 30 30 29 28 29 29 29 30 30 29 29 29 29 28 27 26 27 28 28 29 28 28 28 28 28 28 27 27 26 26 25 25
30 31 31 31 32 32 32 32 32 31 31 31 30 30 30 30 30 30 30 30 30 30 29 29 28 27 28 28 29 29 30 30 29 29 29 28 28 28 27 27 27 26 25
32 32 33 33 33 32 32 33 33 33 32 31 30 30 30 30 30 30 30 30 30 30 28 27 28 28 28 28 29 29 29 29 29 29 28 29 28 28 27 27 27 26 26
Wind_Direction
13 19 16 13 41 67 69 75 68 78 68 60 74 79 82 72 53 41 57 24 9 357 346 355 355 349 347 336 330 328 328 327 330 328 326 326 324 320 307 296 285 285 283
14 14 18 21 30 24 24 41 47 43 53 30 39 55 59 32 13 8 7 0 354 341 324 336 341 344 347 333 329 328 324 324 326 325 321 319 315 315 313 306 298 292 284
15 18 16 17 21 18 17 18 24 20 26 19 20 44 20 15 23 14 5 357 348 340 330 330 330 327 329 327 326 324 319 320 320 317 316 315 312 310 305 303 300 296 292
13 16 23 23 26 21 24 21 32 34 35 29 24 13 2 0 1 358 349 341 336 334 330 328 324 326 325 324 327 323 319 318 317 314 313 312 308 309 304 299 295 293 290
0 13 27 26 28 20 16 21 25 23 20 22 19 12 0 358 350 343 333 327 329 330 328 322 322 323 324 325 326 322 318 318 317 314 312 311 310 309 304 300 293 290 287
351 352 1 9 12 12 17 19 16 10 7 2 355 347 336 339 339 333 332 330 331 329 329 329 326 325 323 324 323 321 316 316 317 316 315 311 308 309 305 301 294 289 286
348 350 353 357 359 1 6 5 3 6 356 343 333 327 323 326 326 321 321 321 321 322 327 323 322 324 323 323 322 322 319 319 319 319 317 312 309 308 306 303 297 291 286
348 347 348 348 350 350 351 348 347 345 339 330 323 316 314 313 308 310 313 313 311 315 318 318 319 320 319 320 320 322 323 321 319 318 317 312 308 305 305 303 299 294 287
346 341 335 334 334 335 335 333 332 328 325 324 317 313 308 304 302 301 303 305 305 306 307 310 313 314 316 317 319 320 321 319 318 316 315 315 311 305 302 301 299 293 289
338 333 330 323 317 318 320 318 318 316 312 309 307 304 302 304 303 301 301 301 303 305 306 306 309 312 311 312 311 314 315 315 315 315 313 313 311 308 303 297 295 294 288
332 329 325 317 309 308 310 311 309 306 305 302 300 299 298 299 299 302 302 299 300 302 301 303 305 306 305 311 311 312 312 311 314 314 313 314 311 306 305 300 292 290 288
322 323 323 317 312 312 310 308 306 303 301 300 299 297 296 298 300 298 298 296 297 298 299 301 303 302 304 309 310 311 313 312 313 315 314 314 313 309 305 300 295 291 289
315 314 313 311 309 308 307 305 304 302 301 300 298 295 293 293 296 296 295 293 293 295 295 296 300 301 303 306 306 307 310 312 312 312 311 311 311 310 307 300 294 293 293
310 308 306 306 304 305 306 306 303 302 300 300 299 298 296 294 293 292 292 292 291 293 294 295 298 300 299 303 305 306 306 307 311 310 308 308 308 306 303 300 295 292 293
308 305 303 301 298 300 302 303 303 300 298 298 298 298 299 297 294 295 293 291 290 292 293 295 297 297 297 301 304 306 307 309 309 310 311 307 305 304 303 298 298 295 293
308 305 302 301 300 300 301 304 305 304 300 299 298 297 296 294 294 294 293 292 291 291 291 293 295 296 295 296 298 302 304 307 308 308 309 309 309 307 304 299 297 294 293
307 305 303 302 303 302 300 300 301 301 300 299 299 300 299 297 294 291 288 287 287 288 289 290 292 293 295 296 295 298 300 303 305 306 306 307 308 307 306 304 300 294 293
302 302 300 300 302 299 298 299 300 301 300 299 298 297 296 295 293 289 287 287 286 287 287 288 288 290 291 291 292 293 297 300 302 304 304 304 305 303 304 303 300 295 292
301 299 296 297 299 298 296 297 297 297 297 297 296 295 294 294 292 291 290 287 286 286 287 287 287 287 288 289 290 290 293 296 299 300 301 301 302 300 299 299 298 294 292
298 297 294 295 296 297 295 295 296 294 294 295 296 294 293 293 292 288 289 289 286 285 286 287 288 288 288 289 289 289 291 293 296 297 297 297 297 297 297 296 294 291 290
295 295 295 294 294 295 295 295 295 293 292 293 294 294 293 292 291 288 286 288 288 286 284 285 286 287 287 287 288 287 289 291 292 294 295 295 295 296 296 294 291 288 287
293 293 294 295 294 293 294 294 294 293 292 292 292 291 290 289 288 287 285 285 285 285 284 284 283 283 284 284 285 286 287 288 289 290 292 293 293 295 295 292 290 287 285
294 293 292 295 295 294 294 294 294 293 291 292 292 290 288 287 286 285 285 285 284 284 284 284 283 283 282 283 284 285 286 286 287 287 288 290 291 292 292 291 288 286 283
293 293 293 294 294 293 293 294 294 293 291 291 292 290 288 287 285 286 286 285 285 284 285 284 282 282 283 283 284 285 286 286 286 287 288 288 289 289 289 288 287 285 283
291 291 292 292 291 292 293 293 293 291 290 290 290 288 287 287 286 285 286 286 287 286 285 283 281 281 282 283 284 285 285 285 286 286 287 288 288 288 287 285 285 284 282
291 291 291 291 291 292 293 293 292 290 291 291 290 288 288 288 286 286 286 287 287 286 285 284 283 281 280 281 283 285 286 287 286 286 286 288 288 288 286 285 285 282 280
Height
5878 5877 5876 5876 5875 5875 5875 5875 5875 5875 5875 5876 5876 5877 5878 5878 5879 5879 5880 5880 5880 5881 5881 5881 5881 5880 5880 5879 5878 5878 5877 5877 5876 5876 5875 5874 5873 5873 5872 5872 5871 5871 5871
5879 5878 5877 5877 5877 5877 5876 5876 5876 5876 5876 5877 5877 5877 5878 5879 5879 5879 5880 5880 5880 5880 5880 5880 5880 5880 5879 5878 5877 5877 5876 5875 5875 5874 5874 5873 5872 5871 5871 5870 5870 5869 5869
5880 5880 5879 5878 5878 5878 5877 5877 5877 5877 5877 5877 5878 5878 5879 5879 5879 5880 5880 5880 5879 5879 5879 5879 5879 5879 5878 5877 5876 5875 5875 5874 5874 5873 5872 5871 5870 5869 5869 5868 5868 5867 5867
5881 5881 5880 5880 5879 5879 5878 5878 5878 5878 5878 5878 5878 5879 5879 5879 5880 5880 5879 5880 5879 5879 5878 5878 5878 5877 5877 5876 5875 5874 5873 5873 5872 5871 5870 5869 5868 5867 5866 5866 5865 5865 5864
5882 5882 5881 5881 5880 5879 5879 5879 5879 5879 5879 5879 5879 5879 5879 5879 5879 5879 5879 5879 5878 5878 5878 5877 5877 5876 5875 5874 5874 5873 5872 5871 5870 5869 5868 5866 5865 5864 5864 5863 5863 5862 5862
5883 5883 5882 5881 5881 5880 5880 5880 5879 5879 5879 5879 5879 5879 5879 5879 5879 5879 5879 5878 5877 5877 5876 5876 5875 5875 5874 5873 5872 5871 5870 5869 5868 5866 5865 5864 5863 5862 5861 5860 5859 5859 5859
5883 5883 5882 5882 5881 5880 5880 5880 5879 5879 5879 5879 5879 5879 5878 5878 5878 5878 5877 5877 5877 5876 5875 5874 5874 5873 5872 5871 5870 5869 5868 5866 5865 5864 5862 5861 5859 5858 5857 5856 5856 5855 5855
5883 5882 5882 5882 5881 5880 5880 5879 5879 5879 5878 5878 5878 5878 5878 5878 5877 5877 5876 5876 5875 5874 5873 5872 5872 5871 5871 5869 5867 5866 5865 5864 5862 5861 5859 5857 5856 5854 5853 5853 5852 5851 5851
5882 5882 5881 5881 5880 5880 5879 5879 5878 5878 5877 5877 5877 5876 5875 5876 5875 5875 5874 5874 5873 5872 5871 5871 5870 5869 5868 5867 5864 5863 5862 5861 5859 5858 5856 5854 5852 5851 5850 5849 5847 5847 5846
5882 5881 5880 5879 5879 5878 5878 5877 5877 5876 5876 5875 5875 5874 5874 5873 5873 5872 5872 5871 5871 5870 5869 5868 5867 5866 5865 5864 5862 5861 5859 5858 5856 5854 5852 5850 5848 5847 5846 5845 5844 5843 5842
5881 5880 5879 5878 5877 5876 5876 5875 5875 5874 5873 5873 5872 5872 5871 5871 5870 5870 5870 5869 5868 5868 5867 5866 5865 5863 5861 5861 5859 5858 5856 5854 5853 5851 5849 5847 5845 5843 5842 5840 5839 5839 5838
5879 5878 5877 5876 5875 5874 5874 5873 5872 5871 5871 5870 5869 5869 5868 5868 5867 5867 5866 5866 5865 5865 5864 5863 5862 5860 5858 5857 5856 5854 5852 5851 5849 5847 5845 5843 5841 5839 5838 5836 5835 5834 5833
5878 5877 5875 5874 5873 5872 5871 5870 5869 5868 5867 5866 5866 5865 5865 5864 5864 5863 5863 5862 5862 5861 5860 5860 5859 5857 5855 5854 5852 5850 5849 5847 5845 5843 5841 5839 5837 5836 5833 5832 5830 5829 5828
5875 5873 5872 5871 5870 5869 5868 5867 5866 5865 5864 5863 5862 5861 5861 5860 5860 5859 5859 5858 5857 5857 5856 5855 5854 5853 5851 5850 5848 5847 5845 5843 5841 5839 5837 5835 5833 5831 5829 5827 5826 5825 5824
5871 5870 5869 5867 5866 5865 5864 5863 5862 5861 5860 5859 5858 5858 5857 5856 5855 5854 5854 5853 5852 5852 5852 5851 5849 5848 5846 5845 5844 5842 5841 5839 5837 5835 5833 5831 5829 5827 5824 5823 5822 5821 5820
5868 5866 5865 5864 5862 5861 5860 5859 5858 5857 5856 5855 5854 5853 5853 5852 5851 5850 5849 5848 5847 5847 5846 5846 5844 5843 5841 5840 5839 5837 5836 5834 5832 5830 5828 5826 5824 5822 5821 5819 5817 5816 5815
5864 5863 5861 5860 5859 5857 5856 5855 5854 5853 5852 5851 5850 5849 5848 5847 5846 5845 5844 5843 5842 5841 5841 5840 5838 5837 5836 5835 5833 5832 5830 5829 5827 5825 5823 5821 5819 5817 5816 5814 5812 5811 5810
5860 5859 5857 5856 5854 5853 5852 5851 5850 5849 5847 5846 5845 5844 5842 5841 5840 5838 5838 5837 5836 5835 5835 5834 5833 5831 5830 5829 5828 5826 5825 5823 5822 5820 5818 5816 5814 5812 5811 5809 5808 5806 5805
5856 5854 5852 5851 5850 5848 5847 5845 5844 5843 5842 5841 5839 5838 5836 5835 5834 5832 5831 5830 5830 5829 5828 5827 5826 5825 5824 5823 5822 5820 5819 5817 5816 5814 5812 5810 5808 5807 5805 5804 5802 5801 5800
5851 5849 5848 5846 5845 5843 5842 5840 5839 5837 5836 5835 5833 5832 5830 5828 5827 5826 5825 5824 5822 5821 5821 5820 5819 5818 5817 5816 5815 5814 5812 5811 5809 5808 5807 5805 5803 5801 5800 5798 5797 5796 5795
5845 5844 5842 5841 5839 5837 5836 5834 5833 5831 5829 5828 5826 5825 5823 5822 5820 5819 5818 5817 5816 5814 5813 5812 5811 5810 5810 5809 5807 5806 5805 5804 5802 5801 5800 5798 5796 5795 5793 5792 5791 5789 5788
5840 5838 5836 5834 5833 5831 5829 5827 5826 5824 5822 5821 5819 5818 5816 5815 5813 5812 5810 5809 5808 5807 5806 5804 5803 5802 5802 5801 5800 5799 5798 5796 5795 5794 5792 5791 5789 5788 5787 5785 5784 5782 5781
5833 5831 5829 5827 5826 5824 5822 5820 5818 5816 5815 5813 5811 5809 5808 5807 5806 5804 5803 5801 5800 5798 5797 5796 5795 5794 5793 5793 5792 5791 5789 5788 5787 5786 5784 5783 5782 5780 5779 5778 5776 5775 5774
5826 5824 5822 5820 5818 5816 5815 5813 5811 5809 5807 5805 5803 5801 5800 5799 5797 5796 5794 5793 5791 5790 5788 5787 5787 5786 5785 5784 5783 5782 5781 5780 5778 5777 5776 5774 5773 5772 5770 5769 5768 5767 5767
5818 5816 5814 5812 5810 5808 5806 5804 5802 5800 5798 5797 5794 5793 5791 5790 5788 5787 5785 5784 5783 5781 5780 5779 5778 5777 5777 5776 5775 5773 5772 5771 5769 5768 5766 5765 5764 5763 5762 5761 5760 5759 5758
5809 5807 5805 5803 5801 5800 5798 5796 5793 5791 5790 5788 5786 5784 5782 5781 5779 5778 5777 5775 5774 5772 5771 5770 5769 5769 5768 5767 5766 5764 5763 5762 5760 5758 5757 5756 5755 5753 5753 5753 5752 5751 5750